CZ-6A DEB, 54353

Orbit data source: Space-Track

CZ-6A DEB, 54353 is space debris in SSO originally from a launch on Fri, 11 Nov 2022 UTC launched from the Taiyaun Space Center, China (TSC). Debris objects in space refer to the collection of defunct objects orbiting the Earth. Examples of debris include non-operational satellites, rocket bodies, and fragments generated from explosions, collisions, or faulty payload assembly.

Loading next visibility...
Identifier
54353, 2022-151CY
Orbit
SSO
Country
Flag of CNCN / PRC
Related business
Manufacturer
SAST
Mission
Spacecraft
Bus & Motor
Unknown
Mass
Unknown
Launch date (UTC)
2022-11-11 (4 years ago)
Launch vehicle
Unknown
Launch site
Taiyaun Space Center, China (TSC)
Object type
Payload
Rocket body
Debris
Shape & HBR
Unknown shape, 0.1 m
Radar Cross Section
Medium (>0.1 m² and <1 m²)

Expand to show TLE details & history
Last TLE update: 2 days ago

TLE from 2 days ago
0 CZ-6A DEB
1 54353U 22151CY  26171.35456169  .00006466  00000-0  10309-2 0  9994
2 54353  99.0825 300.8442 0104553 351.4520   8.4898 14.68726415190049
Epoch: 2026-06-20T08:30Z
TLE epoch observation values (Epoch: 2026-06-20T08:30:34.130Z)
Latitude
-0.00002°
Longitude
-95.36839°
Altitude
595.275 km
Speed
7.601 km/s
True Right ascension
20h 03m 22s
True Declination
0° 00' 00"
Sunlit
Object was in full shadow at epoch
Visualization orbit readout
Latitude
Unknown
Longitude
Unknown
Altitude
Unknown
Speed
Unknown
Apparent Right ascension
Unknown
Apparent Declination
Unknown
Sunlit
N/A
Visualization observer readout
Local Sidereal Time
21:39:42
Azimuth
Unknown
Elevation
Unknown
Doppler factor
Unknown
Orbital elements
Apogee altitude
735.858 km
Perigee altitude
588.639 km
Semi-major axis
7,040.386 km
Eccentricity
0.01046
Inclination
99.0825°
RAAN
300.8442°
Arg. of periapsis
351.452°
True anomaly
8.66899°
Mean anomaly
8.4898°
Eccentric anomaly
8.57916°
Mean motion
3.67408 °/min
Orbital period
97.98 mins
BSTAR
0.0010309
Loading maneuver chart data...
Computing Atmospheric mass density...
Loading historical data...
Loading historical data...
Loading historical data...
Loading historical data...
Loading historical data...
Loading historical data...
Loading historical data...

Documentation

Showing up to 5 results
|